This demonstration page uses our WeatherBlox Daily Observations layout. Learn more.

Left ArrowRight Arrow

40.92945, -100.16068

Hourly Observations for October 29, 2021

Temp ( °F °C ) Dew Point ( °F °C ) Humidity (%) Winds ( mph kmh ) Pressure ( in mb ) Visibility ( mi km ) Precip ( " mm )
12:15 am 00:15 Clear 37 3 27 -2.7 67 67 NW 12 19 30.20 1023 10 16 N/A
12:35 am 00:35 Clear 37 2.6 27 -2.8 68 68 NW 9 15 30.20 1023 10 16 N/A
12:55 am 00:55 Clear 36 2.3 27 -2.8 69 69 NW 10 17 30.20 1023 10 16 N/A
1:15 am 01:15 Clear 36 2 27 -2.7 71 71 NW 10 17 30.21 1023 10 16 N/A
1:35 am 01:35 Clear 35 1.8 27 -2.7 72 72 NW 12 19 30.21 1023 10 16 N/A
1:55 am 01:55 Clear 35 1.7 27 -2.8 72 72 NW 10 17 30.21 1023 10 16 N/A
2:15 am 02:15 Clear 33 0.7 26 -3.1 76 76 WNW 9 15 30.22 1023 10 16 N/A
2:35 am 02:35 Clear 32 undefined 26 -3.3 79 79 W 8 13 30.23 1024 10 16 N/A
2:55 am 02:55 Clear 33 0.5 27 -2.7 79 79 WNW 10 17 30.22 1023 10 16 N/A
3:15 am 03:15 Clear 33 0.4 27 -2.6 81 81 WNW 12 19 30.22 1023 10 16 N/A
3:35 am 03:35 Clear 32 undefined 27 -2.9 81 81 WNW 10 17 30.23 1024 10 16 N/A
3:55 am 03:55 Clear 32 -0.1 27 -3 81 81 WNW 9 15 30.23 1024 10 16 N/A
4:15 am 04:15 Clear 31 -0.5 27 -3 83 83 WNW 7 11 30.23 1024 10 16 N/A
4:35 am 04:35 Clear 31 -0.5 27 -3 83 83 WNW 7 11 30.23 1024 10 16 N/A
4:55 am 04:55 Clear 31 -0.8 26 -3.1 85 85 WNW 8 13 30.24 1024 10 16 N/A
5:15 am 05:15 Clear 30 -0.9 26 -3.1 85 85 WNW 8 13 30.25 1024 10 16 N/A
5:35 am 05:35 Clear 30 -1 26 -3.2 85 85 WNW 9 15 30.24 1024 10 16 N/A
5:55 am 05:55 Clear 30 -1.1 26 -3.2 86 86 WNW 7 11 30.24 1024 10 16 N/A
6:15 am 06:15 Clear 30 -1.3 26 -3.3 86 86 WNW 8 13 30.24 1024 10 16 N/A
6:35 am 06:35 Clear 30 -1 26 -3.1 86 86 W 8 13 30.24 1024 10 16 N/A
6:55 am 06:55 Clear 30 -1 26 -3.2 85 85 WNW 7 11 30.24 1024 10 16 N/A
7:15 am 07:15 Clear 30 -1 26 -3.1 86 86 W 7 11 30.25 1024 10 16 N/A
7:35 am 07:35 Clear 29 -1.4 26 -3.5 86 86 W 8 13 30.25 1024 10 16 N/A
7:55 am 07:55 Clear 30 -1 27 -3 86 86 WNW 9 15 30.25 1024 10 16 N/A
8:15 am 08:15 Sunny 31 -0.4 27 -2.7 85 85 WNW 12 19 30.25 1024 10 16 N/A
8:35 am 08:35 Sunny 32 undefined 28 -2.4 84 84 WNW 10 17 30.25 1024 10 16 N/A
8:55 am 08:55 Sunny 33 0.7 28 -2 82 82 WNW 10 17 30.25 1024 10 16 N/A
9:15 am 09:15 Sunny 35 1.9 29 -1.5 78 78 WNW 13 20 30.25 1024 10 16 N/A
9:35 am 09:35 Sunny 38 3.1 30 -1 75 75 WNW 13 20 30.24 1024 10 16 N/A
9:55 am 09:55 Sunny 40 4.5 31 -0.6 70 70 WNW 10 17 30.22 1023 10 16 N/A
10:15 am 10:15 Sunny 43 6.1 31 -0.3 64 64 WNW 9 15 30.21 1023 10 16 N/A
10:35 am 10:35 Sunny 45 7 31 -0.3 60 60 WNW 7 11 30.19 1022 10 16 N/A
10:55 am 10:55 Sunny 47 8.5 32 -0.1 55 55 NW 6 9 30.18 1022 10 16 N/A
11:15 am 11:15 Sunny 49 9.4 32 undefined 52 52 N N/A 30.16 1021 10 16 N/A
11:35 am 11:35 Sunny 52 11 32 0.1 47 47 N N/A 30.13 1020 10 16 N/A
11:55 am 11:55 Sunny 54 12 30 -0.9 41 41 W 7 11 30.12 1020 10 16 N/A
12:15 pm 12:15 Sunny 55 12.8 29 -1.4 38 38 W 7 11 30.11 1019 10 16 N/A
12:35 pm 12:35 Sunny 56 13.5 29 -1.8 35 35 W 6 9 30.10 1019 10 16 N/A
12:55 pm 12:55 Sunny 56 13.5 28 -2.5 33 33 WNW 8 13 30.09 1019 10 16 N/A
1:15 pm 13:15 Sunny 58 14.4 27 -2.8 31 31 NW 6 9 30.07 1018 10 16 N/A
1:35 pm 13:35 Sunny 58 14.6 27 -2.6 31 31 W 5 7 30.05 1018 10 16 N/A
1:55 pm 13:55 Sunny 59 15 28 -2.1 31 31 NW 6 9 30.04 1017 10 16 N/A
2:15 pm 14:15 Sunny 59 15 28 -2.2 31 31 WSW 5 7 30.02 1016 10 16 N/A
2:35 pm 14:35 Sunny 59 15.1 28 -2.3 30 30 N N/A 30.01 1016 10 16 N/A
2:55 pm 14:55 Sunny 61 15.9 29 -1.8 30 30 W 7 11 30.00 1016 10 16 N/A
3:15 pm 15:15 Sunny 60 15.8 28 -2 30 30 N N/A 29.99 1016 10 16 N/A
3:35 pm 15:35 Sunny 62 16.4 28 -2 29 29 WNW 6 9 29.98 1015 10 16 N/A
3:55 pm 15:55 Sunny 62 16.5 28 -2 28 28 W 3 6 29.97 1015 10 16 N/A
4:15 pm 16:15 Sunny 62 16.7 29 -1.8 28 28 W 5 7 29.96 1015 10 16 N/A
4:35 pm 16:35 Sunny 62 16.7 29 -1.9 28 28 WNW 3 6 29.96 1015 10 16 N/A
4:55 pm 16:55 Sunny 62 16.6 29 -1.8 29 29 N N/A 29.95 1014 10 16 N/A
5:15 pm 17:15 Sunny 62 16.7 29 -1.4 29 29 N N/A 29.94 1014 10 16 N/A
5:35 pm 17:35 Sunny 62 16.7 30 -0.9 30 30 N N/A 29.94 1014 10 16 N/A
5:55 pm 17:55 Sunny 61 16.1 31 -0.7 32 32 N N/A 29.94 1014 10 16 N/A
6:15 pm 18:15 Sunny 60 15.8 29 -1.7 30 30 N N/A 29.94 1014 10 16 N/A
6:35 pm 18:35 Sunny 58 14.7 30 -1.2 34 34 SE 3 6 29.94 1014 10 16 N/A
6:55 pm 18:55 Clear 55 13 31 -0.8 39 39 ESE 3 6 29.95 1014 10 16 N/A
7:15 pm 19:15 Clear 51 10.6 31 -0.3 47 47 SE 3 6 29.98 1015 10 16 N/A
7:35 pm 19:35 Clear 50 10.2 31 -0.5 48 48 SE 5 7 29.98 1015 10 16 N/A
7:55 pm 19:55 Clear 49 9.5 31 -0.5 50 50 SE 3 6 29.99 1015 10 16 N/A
8:15 pm 20:15 Clear 48 8.9 30 -0.9 51 51 SE 3 6 29.98 1015 10 16 N/A
8:35 pm 20:35 Clear 46 8 31 -0.3 56 56 SSE 5 7 29.99 1016 10 16 N/A
8:55 pm 20:55 Clear 45 7.4 32 undefined 60 60 SSE 7 11 30.00 1016 10 16 N/A
9:15 pm 21:15 Clear 44 6.9 32 undefined 62 62 SSE 5 7 29.99 1016 10 16 N/A
9:35 pm 21:35 Clear 44 6.4 31 -0.5 62 62 SSE 5 7 29.98 1015 10 16 N/A
9:55 pm 21:55 Clear 44 6.6 30 -1 59 59 SSE 3 6 29.98 1015 10 16 N/A
10:15 pm 22:15 Clear 43 5.9 30 -1 62 62 N N/A 29.99 1016 10 16 N/A
10:35 pm 22:35 Clear 44 6.5 30 -1.1 59 59 N N/A 29.98 1015 10 16 N/A
10:55 pm 22:55 Clear 38 3.1 30 -1.2 74 74 N N/A 30.01 1016 10 16 N/A
11:15 pm 23:15 Clear 37 3 30 -1.1 75 75 SE 3 6 30.01 1016 10 16 N/A
11:35 pm 23:35 Clear 38 3.3 31 -0.8 75 75 N N/A 29.99 1016 10 16 N/A
11:55 pm 23:55 Clear 35 1.9 29 -1.4 79 79 ESE 3 6 30.01 1016 10 16 N/A

Powered by AerisWeather